Flag Weather past 2 weeks in Ashkelon, Israel

Now
61 °F

Partly sunny.


Feels Like: 61 °F
Forecast: 59 / 66 °F
Wind: 8 mph from South

Location: Ben Gurion International Airport

Current Time: Nov 24, 2014 at 11:38:50 AM

Latest Report: Nov 24, 2014 at 11:20 AM


Visibility: N/A

Pressure: 29.92 "Hg

Humidity: 77%

Dew point: 54 °F

Location of AshkelonLocation

Historic Weather in Ashkelon — Graph

°F

Ashkelon temperature yesterday

Maximum temperature yesterday: 68 °F (at 11:20 AM)
Minimum temperature yesterday: 57 °F (at 7:50 PM)
Average temperature yesterday: 61 °F

Past Weeks' High & Low Weather Summary

 TemperatureHumidityPressure
High86 °F (Nov 9, 11:20 AM)94% (Nov 16, 5:50 AM)30.18 "Hg (Nov 16, 5:50 AM)
Low54 °F (Nov 19, 6:20 AM)21% (Nov 9, 3:20 PM)29.86 "Hg (Nov 14, 1:20 PM)
Average67 °F68%29.99 "Hg
* Reported Nov 9 10:20 AM — Nov 24 10:20 AM, Ashkelon, Weather by CustomWeather, © 2014

Note: Actual official high and low records may vary slightly from our data, if they occured in-between our weather recording intervals... More about our weather records

Advertising

Ashkelon weather history for previous 24 hours

 ConditionsComfort  
Time TempWeatherWind HumidityBarometerVisibility
10:20 AM
Nov 24
61 °FLight rain. Broken clouds.7 mph77%29.98 "HgN/A
9:50 AM61 °FScattered clouds.9 mph77%29.98 "HgN/A
9:20 AM61 °FPassing clouds.10 mph77%29.95 "HgN/A
8:50 AM61 °FSunny.6 mph77%29.95 "Hg10 mi
8:20 AM59 °FSunny.6 mph82%29.95 "Hg10 mi
7:50 AM59 °FSunny.9 mph82%29.95 "Hg10 mi
7:20 AM57 °FSunny.9 mph88%29.95 "Hg10 mi
6:50 AM57 °FSunny.8 mph88%29.95 "Hg10 mi
6:20 AM57 °FSunny.8 mph88%29.92 "Hg10 mi
5:50 AM57 °FPassing clouds.8 mph82%29.92 "HgN/A
5:20 AM57 °FPassing clouds.7 mph82%29.92 "HgN/A
4:50 AM57 °FPassing clouds.5 mph82%29.92 "HgN/A
4:20 AM57 °FPassing clouds.6 mph88%29.92 "HgN/A
3:50 AM57 °FPassing clouds.6 mph88%29.92 "HgN/A
3:20 AM57 °FPassing clouds.6 mph88%29.92 "HgN/A
2:50 AM57 °FPassing clouds.6 mph88%29.92 "HgN/A
2:20 AM57 °FPassing clouds.7 mph88%29.92 "HgN/A
1:50 AM57 °FPassing clouds.8 mph88%29.92 "HgN/A
1:20 AM57 °FPassing clouds.9 mph88%29.92 "HgN/A
12:50 AM57 °FPassing clouds.5 mph88%29.95 "HgN/A
12:20 AM57 °FPassing clouds.6 mph88%29.95 "HgN/A
11:50 PM
Nov 23
57 °FPassing clouds.2 mph88%29.95 "HgN/A
11:20 PM57 °FPassing clouds.2 mph88%29.95 "HgN/A
10:20 PM57 °FPassing clouds.9 mph88%29.95 "HgN/A
9:50 PM57 °FPassing clouds.7 mph88%29.95 "HgN/A
9:20 PM57 °FPassing clouds.8 mph88%29.98 "HgN/A
8:50 PM57 °FLight rain. Passing clouds.6 mph88%29.98 "HgN/A
8:20 PM57 °FPassing clouds.10 mph88%29.98 "HgN/A
7:50 PM57 °FPassing clouds.12 mph88%29.98 "HgN/A
7:20 PM59 °FPassing clouds.12 mph82%29.98 "HgN/A
6:50 PM59 °FLight rain. Passing clouds.9 mph82%29.98 "HgN/A
6:20 PM59 °FPassing clouds.12 mph82%29.98 "HgN/A
5:50 PM59 °FRain. Passing clouds.12 mph82%29.98 "HgN/A
5:20 PM61 °FPassing clouds.3 mph77%29.98 "HgN/A
4:50 PM61 °FPassing clouds.8 mph83%29.95 "HgN/A
4:20 PM63 °FPartly sunny.6 mph77%29.95 "HgN/A
3:50 PM63 °FScattered clouds.13 mph77%29.95 "HgN/A
3:20 PM63 °FScattered clouds.14 mph83%29.95 "HgN/A
2:50 PM61 °FScattered clouds.9 mph83%29.98 "HgN/A
2:20 PM61 °FScattered clouds.12 mph83%29.98 "HgN/A
1:50 PM63 °FScattered clouds.8 mph77%29.98 "HgN/A
1:20 PM64 °FScattered clouds.10 mph73%29.98 "HgN/A
12:50 PM63 °FLight rain. Scattered clouds.9 mph77%29.98 "HgN/A
12:20 PM64 °FRain. Scattered clouds.12 mph68%29.98 "HgN/A
11:50 AM68 °FPassing clouds.6 mph60%29.98 "HgN/A
11:20 AM68 °FPassing clouds.5 mph64%30.01 "HgN/A
Weather by CustomWeather, © 2014

See weather overviewHow to use our weather pages